TimeCET,TemperatureF,Dew PointF,Humidity,Sea Level PressureIn,VisibilityMPH,Wind Direction,Wind SpeedMPH,Gust SpeedMPH,PrecipitationIn,Events,Conditions,WindDirDegrees,DateUTC
12:00 AM,-9999,-9999,N/A,-9999,3.1,South,6.7,-,N/A,,Overcast,180,2013-01-20 23:00:00
12:15 AM,-9999,-9999,N/A,-9999,3.1,North,-9999.0,-,N/A,,Overcast,0,2013-01-20 23:15:00
12:45 AM,44.6,41.0,87,29.39,5.0,South,13.4,-,N/A,,Unknown,180,2013-01-20 23:45:00
1:15 AM,44.6,42.8,93,29.39,5.0,South,11.2,-,N/A,,Unknown,180,2013-01-21 00:15:00
1:45 AM,42.8,41.0,93,29.39,5.0,South,11.2,-,N/A,,Unknown,180,2013-01-21 00:45:00
2:15 AM,42.8,42.8,100,29.39,5.0,South,11.2,-,N/A,,Unknown,180,2013-01-21 01:15:00
2:45 AM,42.8,42.8,100,29.39,5.0,South,11.2,-,N/A,,Unknown,180,2013-01-21 01:45:00
3:15 AM,35.6,35.6,100,29.39,3.7,NNW,6.7,-,N/A,,Unknown,330,2013-01-21 02:15:00
3:24 AM,35.6,35.6,100,29.39,2.5,NNW,4.5,-,N/A,,Mostly Cloudy,330,2013-01-21 02:24:00
3:45 AM,33.8,33.8,100,29.39,2.5,NNW,4.5,-,N/A,,Mostly Cloudy,330,2013-01-21 02:45:00
4:15 AM,33.8,33.8,100,29.39,2.5,NNE,2.2,-,N/A,,Mostly Cloudy,30,2013-01-21 03:15:00
4:45 AM,33.8,33.8,100,29.39,2.5,NNE,2.2,-,N/A,,Mostly Cloudy,30,2013-01-21 03:45:00
5:07 AM,33.8,33.8,100,29.36,1.9,East,2.2,-,N/A,,Mostly Cloudy,90,2013-01-21 04:07:00
5:15 AM,33.8,33.8,100,29.36,1.9,Calm,Calm,-,N/A,,Mostly Cloudy,0,2013-01-21 04:15:00
5:45 AM,-9999,-9999,N/A,-9999,1.9,Variable,4.5,-,N/A,Rain,Rain,0,2013-01-21 04:45:00
6:15 AM,42.8,42.8,100,29.39,2.5,South,8.9,-,N/A,,Mostly Cloudy,180,2013-01-21 05:15:00
6:21 AM,42.8,41.0,93,29.36,3.1,South,8.9,-,N/A,Rain,Light Rain,170,2013-01-21 05:21:00
6:45 AM,42.8,42.8,100,29.36,3.1,South,6.7,-,N/A,Rain,Light Rain,180,2013-01-21 05:45:00
7:15 AM,42.8,42.8,100,29.39,3.1,South,8.9,-,N/A,Rain,Light Rain,190,2013-01-21 06:15:00
7:34 AM,-9999,-9999,N/A,-9999,3.1,Variable,4.5,-,N/A,Rain,Rain,0,2013-01-21 06:34:00
7:45 AM,42.8,42.8,100,29.39,6.2,South,8.9,-,N/A,Rain,Light Rain,170,2013-01-21 06:45:00
8:26 AM,41.0,41.0,100,29.39,1.2,West,4.5,-,N/A,Fog-Rain,Light Rain,260,2013-01-21 07:26:00
8:35 AM,39.2,39.2,100,29.39,0.6,WNW,4.5,-,N/A,Fog-Rain,Light Rain,290,2013-01-21 07:35:00
8:39 AM,39.2,39.2,100,29.42,0.4,West,4.5,-,N/A,Fog-Rain,Light Rain,280,2013-01-21 07:39:00
8:45 AM,-9999,-9999,N/A,-9999,6.2,Variable,4.5,-,N/A,,Overcast,0,2013-01-21 07:45:00
9:00 AM,-9999,-9999,N/A,-9999,1.9,WNW,6.7,-,N/A,,Overcast,300,2013-01-21 08:00:00
9:08 AM,37.4,37.4,100,29.42,0.2,NE,2.2,-,N/A,Fog-Rain,Light Rain,50,2013-01-21 08:08:00
9:15 AM,35.6,35.6,100,29.42,0.2,NE,4.5,-,N/A,Fog-Rain,Light Rain,40,2013-01-21 08:15:00
9:45 AM,35.6,35.6,100,29.42,0.1,NNE,4.5,-,N/A,Fog-Rain,Light Rain,20,2013-01-21 08:45:00
10:15 AM,35.6,35.6,100,29.42,0.1,North,4.5,-,N/A,Fog-Rain,Light Rain,360,2013-01-21 09:15:00
10:23 AM,-9999,-9999,N/A,-9999,5.0,Variable,4.5,-,N/A,,Overcast,0,2013-01-21 09:23:00
10:29 AM,35.6,35.6,100,29.42,0.1,NNW,8.9,-,N/A,Fog,Fog,330,2013-01-21 09:29:00
10:45 AM,33.8,33.8,100,29.42,0.1,North,6.7,-,N/A,Fog,Fog,350,2013-01-21 09:45:00
11:15 AM,33.8,33.8,100,29.42,0.1,NW,6.7,-,N/A,Fog,Fog,310,2013-01-21 10:15:00
11:45 AM,-9999,-9999,N/A,-9999,5.0,NNW,8.9,-,N/A,,Overcast,330,2013-01-21 10:45:00
12:15 PM,33.8,33.8,100,29.42,0.2,NNW,8.9,-,N/A,Fog,Fog,340,2013-01-21 11:15:00
12:21 PM,33.8,33.8,100,29.42,0.3,NNW,8.9,-,N/A,Fog,Fog,330,2013-01-21 11:21:00
12:41 PM,33.8,33.8,100,29.42,0.4,NNW,8.9,-,N/A,Fog-Rain,Light Rain,330,2013-01-21 11:41:00
12:45 PM,33.8,33.8,100,29.42,0.4,NNW,6.7,-,N/A,Fog-Rain,Light Rain,330,2013-01-21 11:45:00
1:12 PM,33.8,33.8,100,29.42,0.5,NNW,11.2,-,N/A,Fog-Rain,Rain,340,2013-01-21 12:12:00
1:15 PM,32.0,32.0,100,29.42,0.5,NNW,11.2,-,N/A,Fog-Rain,Rain,340,2013-01-21 12:15:00
1:45 PM,32.0,32.0,100,29.42,0.5,NNW,8.9,-,N/A,Fog-Rain,Light Rain,340,2013-01-21 12:45:00
2:15 PM,33.8,33.8,100,29.42,0.5,North,4.5,-,N/A,Fog-Rain,Rain,10,2013-01-21 13:15:00
2:26 PM,33.8,33.8,100,29.42,0.5,North,4.5,-,N/A,Fog,Fog,10,2013-01-21 13:26:00
2:45 PM,-9999,-9999,N/A,-9999,3.1,NNW,8.9,-,N/A,,Overcast,330,2013-01-21 13:45:00
3:15 PM,33.8,33.8,100,29.42,0.5,North,4.5,-,N/A,Fog,Fog,350,2013-01-21 14:15:00
3:45 PM,33.8,33.8,100,29.42,0.5,North,2.2,-,N/A,Fog,Fog,10,2013-01-21 14:45:00
4:40 PM,33.8,33.8,100,29.44,0.6,NW,4.5,-,N/A,,Overcast,320,2013-01-21 15:40:00
4:45 PM,33.8,33.8,100,29.44,0.6,North,2.2,-,N/A,,Overcast,350,2013-01-21 15:45:00
5:15 PM,33.8,33.8,100,29.44,0.7,NNW,6.7,-,N/A,,Overcast,340,2013-01-21 16:15:00
5:36 PM,33.8,33.8,100,29.44,0.7,North,4.5,-,N/A,Rain,Rain,360,2013-01-21 16:36:00
5:45 PM,-9999,-9999,N/A,-9999,1.9,Variable,4.5,-,N/A,,Mostly Cloudy,0,2013-01-21 16:45:00
6:15 PM,33.8,33.8,100,29.44,0.7,North,6.7,-,N/A,Rain,Rain,360,2013-01-21 17:15:00
6:39 PM,33.8,33.8,100,29.44,0.9,North,6.7,-,N/A,Rain,Rain,10,2013-01-21 17:39:00
6:45 PM,33.8,33.8,100,29.44,0.9,North,4.5,-,N/A,Rain,Light Rain,10,2013-01-21 17:45:00
7:15 PM,33.8,33.8,100,29.47,0.9,East,2.2,-,N/A,Rain,Rain,80,2013-01-21 18:15:00
7:45 PM,33.8,33.8,100,29.47,0.9,NNE,4.5,-,N/A,Rain,Light Rain,30,2013-01-21 18:45:00
8:15 PM,33.8,33.8,100,29.47,0.9,NNE,2.2,-,N/A,Rain,Rain,20,2013-01-21 19:15:00
8:45 PM,-9999,-9999,N/A,-9999,1.9,North,8.9,-,N/A,,Overcast,360,2013-01-21 19:45:00
9:15 PM,32.0,32.0,100,29.47,1.2,NNE,4.5,-,N/A,Rain,Rain,20,2013-01-21 20:15:00
9:45 PM,32.0,32.0,100,29.47,1.2,NNE,6.7,-,N/A,Rain,Rain,20,2013-01-21 20:45:00
10:15 PM,32.0,32.0,100,29.50,1.2,North,6.7,-,N/A,Rain-Snow,Rain,350,2013-01-21 21:15:00
10:25 PM,32.0,32.0,100,29.50,0.9,North,8.9,-,N/A,Snow,Snow,360,2013-01-21 21:25:00
10:45 PM,32.0,32.0,100,29.50,0.9,North,8.9,-,N/A,Snow,Snow,360,2013-01-21 21:45:00
11:15 PM,32.0,32.0,100,29.50,0.9,North,8.9,-,N/A,Snow,Snow,360,2013-01-21 22:15:00
11:45 PM,-9999,-9999,N/A,-9999,5.0,North,-9999.0,-,N/A,,Overcast,0,2013-01-21 22:45:00